TimeMDT,TemperatureF,Dew PointF,Humidity,Sea Level PressureIn,VisibilityMPH,Wind Direction,Wind SpeedMPH,Gust SpeedMPH,PrecipitationIn,Events,Conditions,WindDirDegrees,DateUTC
12:53 AM,64.9,57.9,78,30.05,10.0,NE,5.8,-,N/A,,Clear,50,2013-09-11 06:53:00
1:53 AM,64.9,59.0,81,30.05,10.0,NE,5.8,-,N/A,,Clear,40,2013-09-11 07:53:00
2:53 AM,64.0,59.0,84,30.06,10.0,NE,4.6,-,N/A,,Clear,40,2013-09-11 08:53:00
3:53 AM,63.0,59.0,87,30.07,10.0,NNE,5.8,-,N/A,,Partly Cloudy,30,2013-09-11 09:53:00
4:53 AM,62.1,59.0,90,30.07,10.0,NE,5.8,-,N/A,,Clear,50,2013-09-11 10:53:00
5:53 AM,61.0,59.0,93,30.09,10.0,NE,5.8,-,N/A,,Mostly Cloudy,40,2013-09-11 11:53:00
6:53 AM,62.1,59.0,90,30.10,10.0,NNE,5.8,-,N/A,,Partly Cloudy,30,2013-09-11 12:53:00
7:53 AM,64.0,60.1,87,30.12,10.0,ENE,5.8,-,N/A,,Mostly Cloudy,60,2013-09-11 13:53:00
8:05 AM,64.4,60.8,88,30.19,10.0,ENE,4.6,-,N/A,,Mostly Cloudy,60,2013-09-11 14:05:00
8:53 AM,66.9,61.0,81,30.12,10.0,East,6.9,-,N/A,,Overcast,90,2013-09-11 14:53:00
9:53 AM,71.1,62.1,73,30.13,10.0,Calm,Calm,-,N/A,,Overcast,0,2013-09-11 15:53:00
10:17 AM,71.6,62.6,73,30.21,10.0,Calm,Calm,-,N/A,,Overcast,0,2013-09-11 16:17:00
10:53 AM,75.0,62.1,64,30.12,10.0,East,8.1,-,N/A,,Mostly Cloudy,80,2013-09-11 16:53:00
11:04 AM,73.4,62.6,69,30.20,10.0,NNE,5.8,-,N/A,,Mostly Cloudy,30,2013-09-11 17:04:00
11:53 AM,73.9,62.1,66,30.13,10.0,East,5.8,-,N/A,,Mostly Cloudy,100,2013-09-11 17:53:00
12:53 PM,78.1,62.1,58,30.11,10.0,East,6.9,-,N/A,,Clear,90,2013-09-11 18:53:00
1:53 PM,78.1,62.1,58,30.10,10.0,East,6.9,-,N/A,,Scattered Clouds,80,2013-09-11 19:53:00
2:53 PM,77.0,62.1,60,30.09,10.0,NE,13.8,20.7,N/A,,Scattered Clouds,50,2013-09-11 20:53:00
3:53 PM,77.0,61.0,58,30.10,10.0,NE,10.4,-,N/A,,Mostly Cloudy,50,2013-09-11 21:53:00
4:53 PM,75.9,61.0,60,30.10,10.0,ENE,10.4,-,N/A,,Clear,60,2013-09-11 22:53:00
5:19 PM,75.2,60.8,61,30.19,10.0,East,10.4,-,N/A,Thunderstorm,Mostly Cloudy,100,2013-09-11 23:19:00
5:45 PM,66.2,62.6,88,30.20,10.0,South,8.1,-,N/A,,Overcast,190,2013-09-11 23:45:00
5:53 PM,66.9,63.0,87,30.15,7.0,South,4.6,-,0.01,Rain,Light Rain,170,2013-09-11 23:53:00
6:05 PM,66.2,64.4,94,30.20,10.0,South,5.8,-,0.00,Rain,Light Rain,190,2013-09-12 00:05:00
6:32 PM,64.4,64.4,100,30.21,2.5,South,4.6,-,0.06,Rain,Rain,190,2013-09-12 00:32:00
6:41 PM,64.4,64.4,100,30.20,4.0,SSW,3.5,-,0.07,Rain,Light Rain,200,2013-09-12 00:41:00
6:53 PM,64.9,63.0,93,30.16,7.0,Calm,Calm,-,0.09,Rain,Light Rain,0,2013-09-12 00:53:00
7:53 PM,64.9,63.0,93,30.16,10.0,SE,3.5,-,0.04,Rain,Light Rain,130,2013-09-12 01:53:00
8:53 PM,64.9,64.0,97,30.16,10.0,NE,3.5,-,0.01,Rain,Light Rain,40,2013-09-12 02:53:00
9:53 PM,64.9,63.0,93,30.17,10.0,East,4.6,-,0.02,,Scattered Clouds,90,2013-09-12 03:53:00
10:53 PM,64.9,64.0,97,30.16,10.0,NNE,3.5,-,0.00,Rain,Light Rain,20,2013-09-12 04:53:00
11:28 PM,64.4,62.6,94,30.24,10.0,East,3.5,-,0.00,,Mostly Cloudy,80,2013-09-12 05:28:00
11:40 PM,64.4,62.6,94,30.23,10.0,East,4.6,-,0.00,,Mostly Cloudy,80,2013-09-12 05:40:00
11:53 PM,64.9,63.0,93,30.16,10.0,ENE,3.5,-,0.00,,Mostly Cloudy,70,2013-09-12 05:53:00